Weather Service Report


768 
ASUS44 KLUB 312010
RWRTX 
WEST TEXAS WEATHER ROUNDUP
NATIONAL WEATHER SERVICE LUBBOCK TX
300 PM CDT MON AUG 31 2015

NOTE: "FAIR" INDICATES FEW OR NO CLOUDS BELOW 12,000 FEET WITH NO
SIGNIFICANT WEATHER AND/OR OBSTRUCTIONS TO VISIBILITY.

TXZ004-006>008-010-012-014-016-OKZ002-312100-
TEXAS PANHANDLE/OKLAHOMA PANHANDLE
  
CITY           SKY/WX    TMP DP  RH WIND       PRES   REMARKS
AMARILLO       SUNNY     88  50  27 S23       30.04F                  
BORGER         SUNNY     93  51  23 S18G26    29.99F                  
CANADIAN       SUNNY     93  52  24 S17G29    29.95F                  
DALHART        LGT RAIN  95  51  22 S17G23    30.00F                  
DUMAS          SUNNY     90  53  28 S21G28    30.01F                  
GUYMON         SUNNY     94  50  22 S23G30    29.93F                  
HEREFORD       SUNNY     90  52  27 SW17G28   30.05F                  
PAMPA          SUNNY     91  51  25 S17G26    30.02F                  
$$

TXZ026-029-035-045-048-312100-
SOUTHERN PANHANDLE/SOUTH PLAINS/ROLLING PLAINS
  
CITY           SKY/WX    TMP DP  RH WIND       PRES   REMARKS
CHILDRESS      SUNNY     95  52  23 S9G21     29.97F                  
SEMINOLE       SUNNY     91  47  22 S7G20     30.06F                  
LUBBOCK        MOSUNNY   91  48  22 S18       30.05F                  
PLAINVIEW      SUNNY     90  45  21 S14       30.04F                  
SNYDER         MOSUNNY   91  56  30 SW8       30.02F                  
$$

TXZ052-054-060>062-072-078-127-140-154-169-312100-
PERMIAN BASIN/CONCHO VALLEY/BIG COUNTRY/EDWARDS PLATEAU  
  
CITY           SKY/WX    TMP DP  RH WIND       PRES   REMARKS
ABILENE        MOSUNNY   93  59  31 S8G22     30.00F                  
BIG SPRING     MOSUNNY   90  56  31 SE7       30.04F                  
BRADY          SUNNY     93  61  33 VRB3      30.01F                  
JUNCTION       SUNNY     91  60  35 E9        30.01F                  
MIDLAND        SUNNY     92  55  28 S13       30.03F                  
ODESSA         SUNNY     92  51  24 S14       30.04F                  
SAN ANGELO     MOSUNNY   94  58  29 SE9       29.99F                  
SONORA         MOSUNNY   90  55  31 SE6G14    30.06F                  
SWEETWATER     SUNNY     91  54  28 SE7       30.05S                  
WINK           SUNNY     94  49  21 SE15      30.00F                  
$$

TXZ055-058-074-075-080-082-312100-
FAR WEST/SOUTHWEST MOUNTAINS/TRANS PECOS
  
CITY           SKY/WX    TMP DP  RH WIND       PRES   REMARKS
ALPINE         SUNNY     89  40  17 CALM      30.17F                  
DRYDEN           N/A     96  58  27 S10       29.98F HX  95           
EL PASO        MOSUNNY   94  46  19 VRB7      30.04F                  
FORT STOCKTON  SUNNY     93  48  21 S7        30.01F                  
GUADALUPE PASS SUNNY     88  49  25 MISG      30.19F                  
MARFA          SUNNY     88  45  22 NE8       30.16F                  
PECOS          SUNNY     95  44  17 E7        29.99F                  
$$

TXZ014-016-019-021>030-083-312100
TEXAS TECH WEST TEXAS MESONET/TEXAS PANHANDLE/NORTHERN SOUTH PLAINS
  
CITY           SKY/WX    TMP DP  RH WIND       PRES   REMARKS
ABERNATHY 5ENE   N/A     90  46  21 S13       30.07S                  
AMARILLO 9NNE    N/A     91  51  25 S22       30.00F                  
AMARILLO 7SSE    N/A     89  51  27 S22       30.05F                  
AMHERST 1NE      N/A     89  46  22 SE16      30.06F                  
BOOTLEG 11WNW    N/A     90  52  27 S14       30.08S                  
CANADIAN 6E      N/A     94  55  25 S16       29.94F                  
CAPROCK CYN SP   N/A     92  47  21 S9        30.01F                  
CHILDRESS 2NNE   N/A     95  50  21 S13       29.97F                  
CLARENDON 2WSW   N/A     92  46  20 S16       30.01F                  
CLAUDE 12SW      N/A     89  52  27 S20       30.04F                  
DIMMITT 2NE      N/A     89  49  24 S21       30.06F                  
FLOYDADA 2NNE    N/A     91  44  19 S13       30.04F                  
FRIONA 2NE       N/A     90  49  24 S18       30.06F                  
GOODLETT 3W      N/A     97  49  19 SE10      29.95F                  
HART 3N          N/A     87  48  25 S14       30.07F                  
HEREFORD 2NW     N/A     89  48  23 S16       30.04F                  
MCLEAN 1E        N/A     90  51  26 S18       30.00F                  
MEMPHIS 1NE      N/A     96  51  21 SE15      29.96F                  
MULESHOE 2SSW    N/A     91  47  21 S12       30.06F                  
OLTON 6S         N/A     88  47  23 S16       30.06F                  
PALO DURO SP     N/A     89  50  26 S12       30.05F                  
PAMPA 2E         N/A     89  51  27 S18       30.02S                  
PLAINVIEW 1S     N/A     90  47  22 SE13      30.05F                  
SILVERTON 7ESE   N/A     91  50  24 S15       30.04F                  
TULIA 2ENE       N/A     91  51  25 S14       30.06S                  
TURKEY 2WSW      N/A     93  50  22 SE14      29.99F                  
UMBARGER 3NNE    N/A     88  53  30 S21       30.06S                  
$$

TXZ033>036-039>041-045>048-312100
TEXAS TECH WEST TEXAS MESONET/SOUTH PLAINS  
  
CITY           SKY/WX    TMP DP  RH WIND       PRES   REMARKS
AIKEN 3WSW       N/A     90  51  26 S9        30.06F                  
ANDREWS 2NE      N/A     89  50  25 S9        30.05F                  
ANTON 6SSW       N/A     89  50  26 S14       30.06F                  
BROWNFIELD 2S    N/A     90  48  24 S14       30.06F                  
DENVR CTY 7WNW   N/A     90  41  18 S14       30.07F                  
GAIL 2ESE        N/A     93  54  26 S9        30.01F                  
LAMESA 2SE       N/A     93  53  25 SE9       30.05F                  
LEVELLAND 4S     N/A     90  45  21 SE10      30.07S                  
LUBBOCK 3WNW     N/A     91  47  21 S10       30.06S                  
MORTON 1ENE      N/A     90  49  24 S13       30.07F                  
ODONNELL 1N      N/A     92  47  21 S9        30.05F                  
PLAINS 3N        N/A     91  44  19 S9        30.07F                  
RALLS 1SE        N/A     92  48  22 S12       30.05F                  
REESE CENTER     N/A     90  43  19 S15       30.06F                  
SEAGRAVES 1SW    N/A     90  48  23 SE12      30.05F                  
SEMINOLE 2NNE    N/A     91  47  21 SE12      30.05F                  
SLATON 2NE       N/A     91  48  22 S15       30.04F                  
SNYDER 3E        N/A     94  54  25 SE6       30.01F                  
SUNDOWN 8SW      N/A     91  46  21 SE14      30.07F                  
TAHOKA 3NNE      N/A     92  51  24 S9        30.04F                  
WOLFFORTH 6SSW   N/A     90  51  25 S12       30.06F                  
$$

TXZ031-032-036>038-042>044-312100-
TEXAS TECH WEST TEXAS MESONET/ROLLING PLAINS 
  
CITY           SKY/WX    TMP DP  RH WIND       PRES   REMARKS
ASPERMONT 3NE    N/A     97  53  22 SE12      29.98F                  
FLUVANNA 3WNW    N/A     91  51  25 SE9       30.03F                  
GRAHAM 5SSW      N/A     90  51  25 S15       30.03F                  
GUTHRIE 10WSW    N/A     96  51  22 S10       29.98F                  
HASKELL 1NW      N/A     94  54  25 S8        29.97F                  
JAYTON 1SSE      N/A     95  51  22 S10G24    29.98F                  
KNOX CITY 3NW    N/A     96  52  22 SE9       29.97F                  
LK A HENRY 1NW   N/A     93  55  27 S8        30.00F                  
ODELL 4ENE       N/A     97  51  21 SE9       29.96F                  
PADUCAH 10SW     N/A     96  49  20 SE9       29.98F                  
POST 1NE         N/A     92  52  26 SE10      30.02F                  
RRING SPRGS 3N   N/A     92  49  23 S15       30.01F                  
SEYMOUR 3NW      N/A     95  55  26 SE9       29.96F                  
SPUR 1W          N/A     92  48  21 SE8       29.99F                  
WEINERT 2NNE     N/A     96  59  29 S9        29.97F HX  95           
WHITE RVR 6NE    N/A     93  47  20 S16       30.02F                  
$$

TXZ052-054-060>062-072-078-127-140-154-169-312100-
TEXAS TECH WEST TEXAS MESONET/PERMIAN BASIN/
CONCHO VALLEY/BIG COUNTRY/EDWARDS PLATEAU
  
CITY           SKY/WX    TMP DP  RH WIND       PRES   REMARKS
JUNCTION 1SSW    N/A     92  62  37 E6        30.01F                  
MERTZON 3NNE     N/A     95  57  27 S5        30.01F                  
SAN ANGELO 7NW   N/A     95  54  25 E8        30.00F                  
STRLNG CT 4WSW   N/A     94  55  26 SE2       30.02F                  
ST LAWRNCE 5SW   N/A     92  55  28 S13       30.03F                  
SWEETWATR 11SW   N/A     92  58  32 SE8       30.04F                  
WALL 1E          N/A     92  54  27 S8        30.00F                  
$$

TXZ055-058-074-075-080-082-312100-
TEXAS TECH WEST TEXAS MESONET/FAR WEST/SOUTHWEST MOUNTAINS/TRANS PECOS
  
CITY           SKY/WX    TMP DP  RH WIND       PRES   REMARKS
PRSMN GAP BBNP   N/A     93  52  24 SW5       30.01F                  
$$
  

Return to Home page


Western Regional Climate Center, wrcc@dri.edu